Погода в Бектауате

Погода в Бектауате : погода сейчас, прогноз погоды и архив. Всё, что Вы хотите узнать о погоде в Бектауате!

Поиск расширенной информации на нашем сайте:

Другие новости

Новости СМИ2

Главная страница сайта

Новости сайта

02.10.2013

Напоминаем, что на нашем новом сайте вы можете получить высокодетализированные прогнозы погоды по пунктам России, СНГ и мира (включающие важные для авиации метеовеличины, такие как направление и скорость ветра, видимость, явления погоды, количество и форма облачности, нижняя и верхняя граница облачности), а также ознакомиться с разнообразными материалами по авиационной метеорологии и подборкой полезных ссылок на эту тему.

Сайт Метеоцентр.Азия посвящён разработке технологий оптимизации авиаметеорологического обслуживания, включая проектирование и перспективное создание нескольких автоматизированных авиаметеорологических систем:
- система выпуска высокодетальных прогностических карт явлений погоды для нижнего воздушного пространства по России и ближнему зарубежью;
- система верификации прогнозов TAF (выпускаемых синоптиками официальных АМСГ РФ и ближнего зарубежья) и AUTOTAF (выпускаемых сайтом Метеоцентр.Азия) - выявление ошибок, онлайн-сопоставление с фактической погодой METAR, автоматическое внесение коррективов в прогнозы при резком отклонении фактической погоды от прогноза, подсчёт оправдываемости прогнозов по элементам и в целом;
- система обработки, анализа и отображения авиаметеорологической информации для применения провайдерами метеорологической информации.


Погода в Бектауате - сегодня

Время (UTC), дата Ветер
(°,м/с) 
Видим.   Явления Облачность Т
(°С)
Тd
(°С)
f(%) Тe
(°С)
Pmin
(гПа)
dP
(гПа)
Po
(мм)
O2
(г/м3)
Тmin Tmax R s Состояние
почвы
21 17.01.17 360 (С) н/о    ясно 
-10.9 -17.1 60 -15  1037.5  -0.6  718  303           
00 18.01.17 320 (СЗ) н/о    ясно 
-10.7 -17 60 -15  1036.4  -0.9  717  302           
03 18.01.17 320 (СЗ) 20000 м    ясно 
-10.9 -16.2 65 -14  1036.5  717  302        16  неравномерный
сухой снег
100% 
06 18.01.17 020 (С) 20000 м    ясно 
-8.7 -14.6 62 -13  1036.2  0.4  718  300  -11.6         
09 18.01.17 020 (С) 20000 м    3/0 верхняя 
[Ci fib]
-8.1 -14.3 61 -12  1034.9  -1  717  299           
12 18.01.17 050 (СВ) 20000 м    4/0 верхняя 
[Ci fib]
-10.1 -15.4 65 -13  1036.3  0.7  718  301           
15 18.01.17 050 (СВ) н/о    ясно 
-11.7 -17 65 -12  1037.1  0.3  718  303    -7.1       
18 18.01.17 050 (СВ) н/о    ясно 
-13.6 -17.1 75 -14  1037.5  -0.2  718  306    -7.1       
21 18.01.17 тихо ()   н/о    ясно 
-14.6 -17.3 80 -15  1037.2  -0.5  717  307           
00 19.01.17 020 (С) н/о    5/0 верхняя 
[Ci fib]
-15 -18.4 75 -17  1036.9  -0.5  717  307           
03 19.01.17 020 (С) 20000 м    9/0 средняя, верхняя 
[Ac cast|Ci fib]
-15.1 -17.8 80 -15  1037.2  0.3  717  307        17  неравномерный
сухой снег
100% 
06 19.01.17 050 (СВ) 20000 м    3/0 верхняя 
[Ci fib]
-13.3 -17.6 70 -13  1037.2  0.5  717  305  -16.1         
09 19.01.17 тихо ()   20000 м    3/0 верхняя 
[Ci fib]
-10.7 -17 60 -11  1035.3  -1  717  302           
12 19.01.17 020 (С) 20000 м    6/0 верхняя 
[Ci fib]
-13.7 -18 70 -16  1036.7  0.4  717  306           
15 19.01.17 тихо ()   н/о    ясно 
-18 -20.6 80 -18  1038.4  0.3  717  311    -10.3       
18 19.01.17 тихо ()   н/о    ясно 
-18.9 -21.5 80 -19  1038.1  -0.6  717  312    -10.3       
21 19.01.17 020 (С) н/о    ясно 
-17.9 -20.5 80 -20  1036.3  -1.3  716  310           
00 20.01.17 020 (С) н/о    8/0 верхняя 
[Ci]
-16.5 -19.1 80 -17  1035.8  716  308           
03 20.01.17 020 (С) 20000 м    9/9 600 м 
[Sc]
-16.4 -19 80 -19  1034.9  -0.9  715  308        17  неравномерный
сухой снег
100% 
06 20.01.17 140 (ЮВ) 10-16  4000 м  метель  9/0 
[Sc]
-7.6 -13.6 62 -14  1031.2  -0.8  715  297  -19.1         
09 20.01.17 140 (ЮВ) 8{16}  20000 м  позёмок  5/0 верхняя 
[Ci ing]
-7.7 -14.3 59 -14  1030  -1.2  714  297           
12 20.01.17 050 (СВ) 20000 м    8/3 600 м средняя, верхняя 
[Sc|Ac cast|Ci fib]
-12.4 -16.7 70 -14  1031.4  714  303           
15 20.01.17 тихо ()   н/о    8/0 средняя 
[Ac trans]
-7.5 -12.4 68 -8  1028.6  -1.1  713  296    -7       
18 20.01.17 020 (С) н/о    10/0 средняя 
[Ac As]
-9.7 -13.8 72 -10  1027.1  -2.1  711  298    -7       
21 20.01.17 020 (С) н/о    10/10 600 м 
[Sc]
-9.7 -12.8 78 -11  1025.6  -1.4  710  298           
Время (UTC), дата Ветер
(°,м/с) 
Видим.   Явления Облачность Т
(°С)
Тd
(°С)
f(%) Тe
(°С)
Pmin
(гПа)
dP
(гПа)
Po
(мм)
O2
(г/м3)
Тmin Tmax R s Состояние
почвы

Для получения пояснительной информации подведите курсор к названию столбца.

ПОГОДА в Бектауате - архив

Всё, что Вы хотите узнать о погоде в Бектауате - удобно и подробно!

Выберите нужную дату (начиная с 1 января 2015* года) и нажмите кнопку "Найти".
Будут отображены архивные сводки погоды по пункту Бектауата, начиная с указанной даты.


Отображать данные в формате CSV (для использования в таблицах Excel)


Внимание! Наш архив погоды предназначен исключительно для личного некоммерческого использования в познавательных целях. Если Вам необходимы официальные справки о состоянии погоды (для производственных, юридических, коммерческих и т.п. целей), обращайтесь в органы Росгидромета.

*Примечание: данная дата относится к архиву по метеостанциям СССР (Россия, СНГ, Балтия).
Архив по метеостанциям Зарубежной Европы и Азии (кроме Китая) хранится 10 дней, по другим регионам земного шара (Китай, Африка, Америка, Австралия, Океания) - 1 день.

Бектауата - район местоположения метеостанции


Название, широта, долгота, высота метеостанции:
Бектауата 47.4°ш. 74.8°д. 520 м над ур. моря [Казахстан]

Дополнительная информация

В oтличие oт бoльшинства пoгoдных сайтoв мы публикуем пoдрoбную метеoинфoрмацию в детальнoм прoфессиoнальнoм фoрмате.

Характеристики температуры и влажнoсти вoздуха измеряются на высoте 2 м в тени вдали oт зданий и деревьев.
Скoрoсть ветра измеряется на высoте 10 м (на урoвне рoста челoвека скoрoсть ветра ниже в 1.5-2 раза). Если метеoстанция нахoдится в гoрoде или в лесу, тo скoрoсть ветра занижена на 2-4 м/с пo сравнению с oткрытым местoм. Скoрoсть ветра над акватoриями крупных рек и oзёр, а также на вершинах хoлмoв на 2-5 м/с выше, чем в oбычных услoвиях.
Атмoсфернoе давление в разных тoчках местнoсти мoжет значительнo oтличаться oт давления на метеoстанции, в зависимoсти oт услoвий рельефа (при пoдъёме на 10 м давление пoнижается примернo на 1 мм рт.ст.).